Weather History for Cando, ND

Change the Weather History Date:

Wednesday, February 13, 2013

  Actual Average (KDVL) Record (KDVL)
Temperature  
Mean Temperature 22 °F -  
Max Temperature 26 °F 20 °F 46 °F (1972)
Min Temperature 17 °F 1 °F -27 °F (2007)
Degree Days  
Heating Degree Days 44    
Moisture  
Dew Point 21 °F    
Average Humidity 95    
Maximum Humidity 100    
Minimum Humidity 86    
Precipitation  
Precipitation 0.10 in - - ()
Sea Level Pressure  
Sea Level Pressure 29.66 in    
Wind  
Wind Speed 7 mph (NNW)    
Max Wind Speed 12 mph    
Max Gust Speed -    
Visibility 9 miles    
Events Snow    
Averages and records for this station are not official NWS values.
T = Trace of Precipitation, MM = Missing Value Source: NWS Daily Summary

Daily Weather History Graph

Daily Weather History Graph

Search for Another Location

Airport:

Trip Planner

Search our weather history database for the weather conditions in past years. The results will help you decide how hot, cold, wet, or windy it might be!

Date:

Astronomy

Feb. 13, 2013 Rise Set
Actual Time 7:47 AM CST 5:55 PM CST
Civil Twilight 7:14 AM CST 6:28 PM CST
Nautical Twilight 6:38 AM CST 7:05 PM CST
Astronomical Twilight 6:01 AM CST 7:41 PM CST
Moon 8:55 AM CST (2/13) 10:25 PM CST (2/13)
Length of Visible Light 11h 13m
Length of Day
10h 08m
Waxing Crescent, 14% of the Moon is Illuminated
Feb 13
Waxing Crescent
Feb 17
First Quarter
Feb 25
Full
Mar 4
Last Quarter
Mar 11
New

Hourly Weather History & Observations

Time (CST) Temp. Windchill Dew Point Humidity Pressure Visibility Wind Dir Wind Speed Gust Speed Precip Events Conditions
12:15 AM 23.0 °F 13.9 °F 19.4 °F 86% 29.69 in 10.0 mi West 8.1 mph - N/A   Clear
12:35 AM 23.0 °F 13.9 °F 21.2 °F 93% 29.69 in 10.0 mi WNW 8.1 mph - N/A   Clear
12:55 AM 23.0 °F 13.1 °F 21.2 °F 93% 29.69 in 10.0 mi WNW 9.2 mph - N/A   Clear
1:15 AM 21.2 °F 9.5 °F 19.4 °F 93% 29.69 in 10.0 mi WNW 11.5 mph - N/A   Clear
1:35 AM 19.4 °F 11.5 °F 17.6 °F 93% 29.69 in 10.0 mi NW 5.8 mph - N/A   Clear
1:55 AM 19.4 °F 10.4 °F 19.4 °F 100% 29.68 in 10.0 mi WNW 6.9 mph - N/A   Scattered Clouds
2:15 AM 17.6 °F 6.4 °F 15.8 °F 93% 29.68 in 10.0 mi WNW 9.2 mph - N/A   Overcast
2:35 AM 17.6 °F 6.4 °F 17.6 °F 100% 29.67 in 10.0 mi WNW 9.2 mph - N/A   Overcast
2:55 AM 17.6 °F 5.7 °F 17.6 °F 100% 29.67 in 10.0 mi West 10.4 mph - N/A   Overcast
3:15 AM 17.6 °F 8.2 °F 15.8 °F 93% 29.66 in 10.0 mi West 6.9 mph - N/A   Overcast
3:35 AM 17.6 °F 8.2 °F 17.6 °F 100% 29.65 in 10.0 mi WSW 6.9 mph - N/A   Overcast
3:55 AM 17.6 °F 8.2 °F 15.8 °F 93% 29.65 in 10.0 mi West 6.9 mph - N/A   Overcast
4:15 AM 17.6 °F 7.3 °F 17.6 °F 100% 29.64 in 10.0 mi West 8.1 mph - N/A   Overcast
4:35 AM 19.4 °F 8.6 °F 19.4 °F 100% 29.64 in 10.0 mi West 9.2 mph - N/A   Overcast
4:55 AM 19.4 °F 8.6 °F 19.4 °F 100% 29.64 in 10.0 mi WNW 9.2 mph - N/A   Overcast
5:15 AM 19.4 °F 9.5 °F 19.4 °F 100% 29.64 in 10.0 mi West 8.1 mph - N/A   Overcast
5:35 AM 19.4 °F 11.5 °F 19.4 °F 100% 29.63 in 10.0 mi West 5.8 mph - N/A   Overcast
5:55 AM 19.4 °F 10.4 °F 19.4 °F 100% 29.62 in 10.0 mi West 6.9 mph - N/A   Overcast
6:15 AM 21.2 °F 12.6 °F 19.4 °F 93% 29.62 in 10.0 mi West 6.9 mph - N/A   Overcast
6:35 AM 19.4 °F 10.4 °F 19.4 °F 100% 29.61 in 10.0 mi West 6.9 mph - N/A   Overcast
6:55 AM 19.4 °F 12.8 °F 19.4 °F 100% 29.61 in 10.0 mi West 4.6 mph - N/A   Overcast
7:15 AM 19.4 °F 12.8 °F 19.4 °F 100% 29.60 in 10.0 mi West 4.6 mph - N/A   Overcast
7:35 AM 17.6 °F 9.3 °F 17.6 °F 100% 29.60 in 10.0 mi West 5.8 mph - N/A   Overcast
7:55 AM 19.4 °F 10.4 °F 19.4 °F 100% 29.60 in 10.0 mi West 6.9 mph - N/A   Overcast
8:15 AM 19.4 °F 11.5 °F 19.4 °F 100% 29.60 in 10.0 mi West 5.8 mph - N/A   Overcast
8:35 AM 19.4 °F 12.8 °F 19.4 °F 100% 29.60 in 10.0 mi WSW 4.6 mph - N/A   Overcast
8:55 AM 19.4 °F 14.3 °F 19.4 °F 100% 29.59 in 10.0 mi West 3.5 mph - N/A   Overcast
9:15 AM 21.2 °F - 19.4 °F 93% 29.59 in 10.0 mi Calm Calm - N/A   Overcast
9:35 AM 23.0 °F 18.4 °F 21.2 °F 93% 29.59 in 10.0 mi ENE 3.5 mph - N/A   Overcast
9:55 AM 23.0 °F - 21.2 °F 93% 29.58 in 10.0 mi Calm Calm - N/A   Overcast
10:15 AM 23.0 °F - 21.2 °F 93% 29.58 in 10.0 mi Calm Calm - N/A   Overcast
10:35 AM 24.8 °F 19.1 °F 23.0 °F 93% 29.59 in 10.0 mi NNW 4.6 mph - N/A   Overcast
10:55 AM 24.8 °F - 23.0 °F 93% 29.59 in 10.0 mi Calm Calm - N/A   Overcast
11:15 AM 26.6 °F - 23.0 °F 86% 29.59 in 10.0 mi Calm Calm - N/A   Overcast
11:35 AM 26.6 °F - 23.0 °F 86% 29.59 in 10.0 mi Calm Calm - N/A   Mostly Cloudy
11:55 AM 26.6 °F - 23.0 °F 86% 29.60 in 10.0 mi Calm Calm - N/A   Mostly Cloudy
12:15 PM 26.6 °F 21.2 °F 23.0 °F 86% 29.60 in 10.0 mi North 4.6 mph - N/A   Overcast
12:35 PM 26.6 °F 20.0 °F 23.0 °F 86% 29.60 in 10.0 mi North 5.8 mph - N/A   Mostly Cloudy
12:55 PM 26.6 °F 17.5 °F 23.0 °F 86% 29.60 in 3.0 mi North 9.2 mph - N/A Snow Light Snow
1:15 PM 24.8 °F 14.6 °F 23.0 °F 93% 29.60 in 7.0 mi North 10.4 mph - N/A Snow Light Snow
1:35 PM 24.8 °F 14.6 °F 23.0 °F 93% 29.60 in 10.0 mi North 10.4 mph - N/A   Mostly Cloudy
1:55 PM 24.8 °F 14.6 °F 23.0 °F 93% 29.60 in 10.0 mi NNE 10.4 mph - N/A   Mostly Cloudy
2:15 PM 24.8 °F 14.6 °F 23.0 °F 93% 29.61 in 6.0 mi North 10.4 mph - N/A   Mostly Cloudy
2:35 PM 24.8 °F 14.6 °F 24.8 °F 100% 29.61 in 10.0 mi North 10.4 mph - N/A   Overcast
2:55 PM 24.8 °F 15.3 °F 24.8 °F 100% 29.61 in 1.5 mi North 9.2 mph - 0.01 in Snow Light Snow
3:15 PM 24.8 °F 14.6 °F 24.8 °F 100% 29.62 in 2.0 mi NNE 10.4 mph - N/A Snow Light Snow
3:35 PM 24.8 °F 15.3 °F 24.8 °F 100% 29.63 in 9.0 mi NNE 9.2 mph - N/A   Overcast
3:55 PM 24.8 °F 16.1 °F 24.8 °F 100% 29.63 in 10.0 mi NNE 8.1 mph - N/A   Overcast
4:15 PM 24.8 °F 15.3 °F 23.0 °F 93% 29.64 in 10.0 mi North 9.2 mph - N/A   Mostly Cloudy
4:35 PM 24.8 °F 15.3 °F 23.0 °F 93% 29.65 in 10.0 mi NNE 9.2 mph - N/A   Overcast
4:55 PM 24.8 °F 16.1 °F 23.0 °F 93% 29.66 in 10.0 mi NNE 8.1 mph - N/A   Overcast
5:15 PM 24.8 °F 14.6 °F 23.0 °F 93% 29.66 in 10.0 mi NNE 10.4 mph - N/A   Overcast
5:35 PM 24.8 °F 16.1 °F 23.0 °F 93% 29.67 in 10.0 mi North 8.1 mph - N/A   Overcast
5:55 PM 24.8 °F 16.1 °F 23.0 °F 93% 29.69 in 10.0 mi North 8.1 mph - N/A   Overcast
6:15 PM 24.8 °F 16.9 °F 23.0 °F 93% 29.70 in 10.0 mi North 6.9 mph - N/A   Overcast
6:35 PM 24.8 °F 16.9 °F 23.0 °F 93% 29.71 in 10.0 mi North 6.9 mph - N/A   Overcast
6:55 PM 24.8 °F 15.3 °F 23.0 °F 93% 29.71 in 10.0 mi North 9.2 mph - N/A   Overcast
7:15 PM 24.8 °F 15.3 °F 23.0 °F 93% 29.72 in 10.0 mi North 9.2 mph - N/A   Overcast
7:35 PM 23.0 °F 15.8 °F 23.0 °F 100% 29.72 in 10.0 mi North 5.8 mph - N/A   Overcast
7:55 PM 23.0 °F 17.0 °F 21.2 °F 93% 29.73 in 10.0 mi NNE 4.6 mph - N/A   Overcast
8:15 PM 23.0 °F 15.8 °F 21.2 °F 93% 29.73 in 10.0 mi NNE 5.8 mph - N/A   Overcast
8:35 PM 23.0 °F 15.8 °F 19.4 °F 86% 29.74 in 10.0 mi North 5.8 mph - N/A   Overcast
8:55 PM 21.2 °F 14.9 °F 19.4 °F 93% 29.75 in 9.0 mi North 4.6 mph - N/A   Overcast
9:15 PM 21.2 °F 16.4 °F 19.4 °F 93% 29.75 in 9.0 mi North 3.5 mph - N/A   Mostly Cloudy
9:35 PM 21.2 °F 14.9 °F 19.4 °F 93% 29.75 in 6.0 mi NNE 4.6 mph - N/A Snow Light Snow
9:55 PM 21.2 °F 13.6 °F 19.4 °F 93% 29.76 in 5.0 mi NNE 5.8 mph - 0.01 in Snow Light Snow
10:15 PM 21.2 °F 13.6 °F 19.4 °F 93% 29.76 in 3.0 mi North 5.8 mph - N/A Snow Light Snow
10:35 PM 19.4 °F 11.5 °F 19.4 °F 100% 29.76 in 3.0 mi NNE 5.8 mph - 0.01 in Snow Light Snow
10:55 PM 19.4 °F 12.8 °F 19.4 °F 100% 29.77 in 5.0 mi NNE 4.6 mph - 0.02 in Snow Light Snow
11:15 PM 21.2 °F 12.6 °F 19.4 °F 93% 29.77 in 5.0 mi NNE 6.9 mph - N/A Snow Light Snow
11:35 PM 21.2 °F 13.6 °F 21.2 °F 100% 29.77 in 3.0 mi NE 5.8 mph - 0.02 in Snow Light Snow
11:55 PM 21.2 °F 14.9 °F 19.4 °F 93% 29.78 in 2.0 mi NNE 4.6 mph - 0.06 in Snow Light Snow